TSO3021 USHN-USHN

Flight info

Callsign TSO3021
Flight time 0h 2m
Altitude 29000
Route DCT
Aircraft A388/J-SADE2E3FGHIJ3J4J5M1RWXY/LB1D1

Departure

Time 2026-04-11 18:09
Airport Nyagan Airport (USHN)

Arrival

Time 2026-04-11 18:11
Airport Nyagan Airport (USHN)
Time Latitude Longitude Altitude Speed Heading
2026-04-11 18:03 62.10293 65.60808 357 ft 0 kts 182°
2026-04-11 18:06 62.10291 65.60808 363 ft 2 kts 182°
2026-04-11 18:06 62.10255 65.60816 368 ft 7 kts 152°
2026-04-11 18:07 62.10212 65.60934 364 ft 14 kts 108°
2026-04-11 18:07 62.10198 65.61118 360 ft 13 kts 93°
2026-04-11 18:07 62.10195 65.61221 359 ft 4 kts 94°
2026-04-11 18:07 62.10207 65.61260 366 ft 12 kts 29°
2026-04-11 18:08 62.10278 65.61307 364 ft 4 kts
2026-04-11 18:08 62.10301 65.61310 364 ft 6 kts
2026-04-11 18:08 62.10343 65.61314 364 ft 22 kts
2026-04-11 18:08 62.11252 65.61421 421 ft 152 kts
2026-04-11 18:09 62.11949 65.61585 1100 ft 154 kts
2026-04-11 18:09 62.13372 65.62413 1557 ft 173 kts 40°
2026-04-11 18:09 62.13509 65.64102 1530 ft 193 kts 112°
2026-04-11 18:09 62.12138 65.64031 996 ft 152 kts 233°
2026-04-11 18:10 62.11712 65.62960 781 ft 132 kts 237°
2026-04-11 18:10 62.10884 65.61390 434 ft 121 kts 200°
2026-04-11 18:10 62.10389 65.61343 365 ft 89 kts 187°
2026-04-11 18:10 62.09540 65.61196 646 ft 140 kts 173°
2026-04-11 18:11 62.10241 65.61160 414 ft 431 kts 22°
2026-04-11 18:11 62.10786 65.61281 566 ft 0 kts 167°
2026-04-11 18:11 62.09029 65.60789 1157 ft 0 kts 12°
2026-04-11 18:11 62.09206 65.60909 754 ft 172 kts 11°
2026-04-11 18:12 62.10488 65.61344 388 ft 176 kts
2026-04-11 18:12 62.11303 65.61419 368 ft 68 kts 360°
2026-04-11 18:12 62.11861 65.61462 366 ft 124 kts
2026-04-11 18:12 62.12892 65.61728 878 ft 159 kts 30°
2026-04-11 18:13 62.13300 65.63849 1747 ft 192 kts 101°
2026-04-11 18:13 62.12277 65.64947 1400 ft 159 kts 207°
2026-04-11 18:13 62.11393 65.63881 1325 ft 136 kts 232°
2026-04-11 18:13 62.11285 65.62309 977 ft 120 kts 291°
2026-04-11 18:14 62.11447 65.60611 460 ft 135 kts 234°
2026-04-11 18:14 62.11387 65.60434 726 ft 0 kts 37°
2026-04-11 18:14 62.11537 65.60606 375 ft 45 kts
2026-04-11 18:14 62.11554 65.60630 1698 ft 0 kts
2026-04-11 18:15 62.11558 65.60632 7169 ft 0 kts 187°
2026-04-11 18:15 62.11114 65.61106 7172 ft 0 kts 190°
2026-04-11 18:15 62.10774 65.60789 3828 ft 181 kts 205°
2026-04-11 18:15 62.10095 65.61655 355 ft 382 kts 185°
2026-04-11 18:16 62.10860 65.60916 366 ft 21 kts 201°
2026-04-11 18:16 62.11080 65.60664 356 ft 0 kts 180°
2026-04-11 18:16 62.11830 65.62120 465 ft 0 kts 214°
2026-04-11 18:16 62.12792 65.64270 2176 ft 0 kts 315°
2026-04-11 18:17 62.12020 65.63935 8521 ft 6264 kts 12°
2026-04-11 18:17 62.09259 65.60761 4865 ft 145 kts
2026-04-11 18:17 62.11033 65.61512 372 ft 242 kts 352°
2026-04-11 18:17 62.12313 65.61602 1131 ft 161 kts 355°
2026-04-11 18:18 62.13404 65.61580 1210 ft 156 kts 352°
2026-04-11 18:18 62.14307 65.62732 1253 ft 192 kts 70°
2026-04-11 18:18 62.13378 65.64585 841 ft 218 kts 194°
2026-04-11 18:18 62.12253 65.62656 696 ft 214 kts 231°
2026-04-11 18:19 62.10915 65.61322 381 ft 191 kts 158°
2026-04-11 18:19 62.10330 65.61331 546 ft 0 kts 350°
2026-04-11 18:19 62.10759 65.61311 392 ft 14 kts 353°
2026-04-11 18:19 62.10773 65.61515 386 ft 14 kts 355°
2026-04-11 18:20 62.10763 65.61646 387 ft 0 kts 37°
2026-04-11 18:20 62.10731 65.61349 429 ft 438 kts 10°
2026-04-11 18:21 62.10695 65.61346 374 ft 0 kts
2026-04-11 18:21 62.11894 65.61615 984 ft 146 kts
2026-04-11 18:21 62.12824 65.61571 365 ft 134 kts 355°
2026-04-11 18:21 62.12131 65.61501 411 ft 414 kts 183°
2026-04-11 18:22 62.10577 65.61305 385 ft 402 kts
2026-04-11 18:22 62.11275 65.61202 355 ft 0 kts 177°
2026-04-11 18:22 62.11193 65.61173 458 ft 373 kts 123°
2026-04-11 18:22 62.10872 65.61337 364 ft 28 kts 358°
2026-04-11 18:23 62.10916 65.61335 361 ft 0 kts 359°
2026-04-11 18:23 62.10978 65.61338 369 ft 45 kts
2026-04-11 18:23 62.11692 65.61431 432 ft 142 kts
2026-04-11 18:24 62.12474 65.61784 1209 ft 74 kts
2026-04-11 18:24 62.13012 65.62327 1560 ft 71 kts
2026-04-11 18:24 62.13656 65.62548 1837 ft 113 kts 321°
2026-04-11 18:24 62.13307 65.60917 1994 ft 201 kts 205°
2026-04-11 18:25 62.11867 65.59977 980 ft 232 kts 219°
2026-04-11 18:25 62.10924 65.57997 1220 ft 144 kts 244°
2026-04-11 18:25 62.10428 65.56350 2458 ft 134 kts 247°
2026-04-11 18:26 62.09185 65.52069 2748 ft 182 kts 264°
2026-04-11 18:26 62.09453 65.49354 1656 ft 242 kts 326°
2026-04-11 18:26 62.11242 65.48354 1336 ft 288 kts
2026-04-11 18:26 62.13048 65.50592 1393 ft 328 kts 46°
2026-04-11 18:27 62.14135 65.55073 1179 ft 342 kts 68°
2026-04-11 18:27 62.14421 65.59693 1182 ft 293 kts 108°
2026-04-11 18:27 62.13131 65.62259 591 ft 250 kts 178°
2026-04-11 18:27 62.11925 65.61463 365 ft 221 kts 152°
2026-04-11 18:28 62.11167 65.61396 362 ft 0 kts 179°
2026-04-11 18:28 62.11095 65.61385 369 ft 0 kts 187°
2026-04-11 18:35 62.11092 65.61384 450 ft 0 kts 187°
2026-04-11 18:38 62.11040 65.61353 439 ft 441 kts 188°
2026-04-11 18:38 62.10926 65.61372 369 ft 0 kts 185°
2026-04-11 18:39 62.10921 65.61371 361 ft 0 kts 184°
2026-04-11 18:39 62.10847 65.61362 362 ft 14 kts 182°
2026-04-11 18:39 62.10840 65.61362 363 ft 0 kts 182°
2026-04-11 18:40 62.10597 65.61332 369 ft 95 kts 184°
2026-04-11 18:40 62.09255 65.61263 1000 ft 150 kts 173°
2026-04-11 18:40 62.08569 65.60672 1536 ft 1249 kts 262°
2026-04-11 18:41 62.10590 65.61578 635 ft 205 kts 359°
2026-04-11 18:41 62.12094 65.61523 480 ft 225 kts 24°
2026-04-11 18:41 62.13100 65.63483 2494 ft 167 kts 38°
2026-04-11 18:41 62.12132 65.61032 3279 ft 2286 kts 172°
2026-04-11 18:42 62.12698 65.61445 451 ft 142 kts 310°
2026-04-11 18:42 62.11327 65.61305 968 ft 229 kts 196°
2026-04-11 18:42 62.10279 65.59496 967 ft 178 kts 253°
2026-04-11 18:42 62.09940 65.58251 596 ft 0 kts 335°
2026-04-11 18:43 62.11409 65.61742 1442 ft 1146 kts 175°
2026-04-11 18:43 62.09763 65.61559 1444 ft 1146 kts 45°
2026-04-11 18:43 62.10586 65.61349 395 ft 0 kts 180°
2026-04-11 18:43 62.10570 65.61353 371 ft 0 kts 177°
2026-04-11 18:52 62.10294 65.60840 355 ft 7 kts 184°
2026-04-11 18:53 62.10300 65.60832 360 ft 0 kts 184°
2026-04-11 18:58 62.10299 65.60832 360 ft 2 kts 184°
2026-04-11 18:58 62.10256 65.60838 365 ft 9 kts 157°
2026-04-11 18:59 62.10207 65.60962 365 ft 15 kts 107°
2026-04-11 18:59 62.10196 65.61208 359 ft 17 kts 85°
2026-04-11 18:59 62.10254 65.61304 365 ft 11 kts
2026-04-11 18:59 62.10260 65.61305 368 ft 0 kts
2026-04-11 19:01 62.10261 65.61305 355 ft 3 kts
2026-04-11 19:02 62.10442 65.61316 367 ft 20 kts
2026-04-11 19:02 62.10455 65.61317 366 ft 0 kts
2026-04-11 19:02 62.10459 65.61317 366 ft 0 kts
2026-04-11 19:02 62.10465 65.61318 366 ft 1 kts
2026-04-11 19:03 62.10495 65.61321 367 ft 7 kts
2026-04-11 19:03 62.10551 65.61327 367 ft 8 kts
2026-04-11 19:03 62.10611 65.61334 368 ft 8 kts
2026-04-11 19:03 62.10618 65.61335 367 ft 0 kts
2026-04-11 19:06 62.10620 65.61335 372 ft 1 kts
2026-04-11 19:06 62.10626 65.61336 368 ft 1 kts
2026-04-11 19:06 62.10633 65.61336 367 ft 0 kts
2026-04-11 19:07 62.10646 65.61337 366 ft 6 kts
2026-04-11 19:08 62.10711 65.61343 366 ft 14 kts
2026-04-11 19:08 62.11203 65.61384 365 ft 127 kts
2026-04-11 19:08 62.11679 65.61425 369 ft 25 kts
2026-04-11 19:08 62.11821 65.61443 367 ft 0 kts 359°
2026-04-11 19:10 62.11840 65.61609 365 ft 34 kts 125°
2026-04-11 19:10 62.11435 65.61595 366 ft 102 kts 184°
2026-04-11 19:11 62.10546 65.61296 357 ft 279 kts 26°
2026-04-11 19:11 62.10024 65.61318 361 ft 16 kts 19°
2026-04-11 19:11 62.10126 65.61301 358 ft 10 kts 356°
2026-04-11 19:11 62.10154 65.61301 358 ft 0 kts
2026-04-11 19:14 62.10353 65.61317 361 ft 46 kts
2026-04-11 19:15 62.10434 65.61323 365 ft 0 kts